BTK6137 WAAA-WARR

Flight info

Callsign BTK6137
Flight time N/A
Altitude 35000
Route ENDOG W32 SUSIL W32N KOLTA
Aircraft A320/M-SDE3FGHIRWY/LB1

Departure

Time 2026-04-30 08:30
Airport Sultan Hasanuddin International Airport (WAAA)

Arrival

Time N/A
Airport Juanda International Airport (WARR)
Time Latitude Longitude Altitude Speed Heading
2026-04-30 08:14 -5.07938 119.54638 41 ft 0 kts 300°
2026-04-30 08:20 -5.07945 119.54650 41 ft 4 kts 302°
2026-04-30 08:20 -5.07960 119.54672 40 ft 4 kts 308°
2026-04-30 08:20 -5.07978 119.54693 41 ft 4 kts 321°
2026-04-30 08:20 -5.08000 119.54704 41 ft 4 kts
2026-04-30 08:21 -5.08011 119.54701 41 ft 1 kts 30°
2026-04-30 08:21 -5.08012 119.54700 41 ft 0 kts 30°
2026-04-30 08:23 -5.08008 119.54703 41 ft 4 kts 30°
2026-04-30 08:23 -5.07971 119.54724 41 ft 12 kts 30°
2026-04-30 08:23 -5.07898 119.54767 41 ft 11 kts 30°
2026-04-30 08:24 -5.07832 119.54805 41 ft 10 kts 30°
2026-04-30 08:24 -5.07768 119.54843 41 ft 11 kts 30°
2026-04-30 08:24 -5.07705 119.54879 41 ft 10 kts 30°
2026-04-30 08:24 -5.07646 119.54914 41 ft 12 kts 30°
2026-04-30 08:25 -5.07588 119.54966 39 ft 11 kts 65°
2026-04-30 08:25 -5.07591 119.55032 41 ft 9 kts 115°
2026-04-30 08:25 -5.07623 119.55102 41 ft 11 kts 92°
2026-04-30 08:25 -5.07565 119.55160 40 ft 16 kts 30°
2026-04-30 08:26 -5.07445 119.55229 39 ft 21 kts 30°
2026-04-30 08:26 -5.07312 119.55305 39 ft 23 kts 30°
2026-04-30 08:26 -5.07172 119.55386 41 ft 24 kts 30°
2026-04-30 08:26 -5.07026 119.55470 39 ft 25 kts 30°
2026-04-30 08:27 -5.06875 119.55557 41 ft 21 kts 30°
2026-04-30 08:27 -5.06759 119.55624 41 ft 16 kts 30°
2026-04-30 08:27 -5.06691 119.55663 41 ft 6 kts 30°
2026-04-30 08:27 -5.06660 119.55690 40 ft 6 kts 59°
2026-04-30 08:28 -5.06663 119.55728 41 ft 5 kts 116°
2026-04-30 08:28 -5.06682 119.55753 41 ft 4 kts 127°
2026-04-30 08:28 -5.06705 119.55783 40 ft 5 kts 127°
2026-04-30 08:28 -5.06741 119.55819 41 ft 8 kts 156°
2026-04-30 08:29 -5.06789 119.55811 41 ft 6 kts 209°
2026-04-30 08:29 -5.06808 119.55800 41 ft 1 kts 210°
2026-04-30 08:29 -5.06943 119.55723 40 ft 58 kts 209°
2026-04-30 08:29 -5.07484 119.55410 40 ft 118 kts 210°
2026-04-30 08:30 -5.08332 119.54923 41 ft 164 kts 210°
2026-04-30 08:30 -5.09366 119.54320 487 ft 172 kts 210°
2026-04-30 08:30 -5.10401 119.53723 1200 ft 171 kts 210°
2026-04-30 08:30 -5.11433 119.53128 1866 ft 173 kts 210°
2026-04-30 08:31 -5.12526 119.52482 2157 ft 193 kts 214°
2026-04-30 08:31 -5.13460 119.51408 2352 ft 220 kts 244°
2026-04-30 08:31 -5.13763 119.49829 2646 ft 246 kts 269°
2026-04-30 08:31 -5.13757 119.48030 2993 ft 268 kts 270°
2026-04-30 08:32 -5.13747 119.46120 3633 ft 277 kts 270°
2026-04-30 08:32 -5.13739 119.44161 4407 ft 282 kts 270°
2026-04-30 08:32 -5.13730 119.42184 5208 ft 285 kts 270°
2026-04-30 08:32 -5.13726 119.40188 6012 ft 288 kts 270°
2026-04-30 08:33 -5.13723 119.38165 6798 ft 292 kts 270°
2026-04-30 08:33 -5.13720 119.36121 7569 ft 294 kts 270°
2026-04-30 08:33 -5.13720 119.34057 8335 ft 297 kts 270°
2026-04-30 08:33 -5.13721 119.31976 9060 ft 300 kts 270°
2026-04-30 08:34 -5.13723 119.29871 9770 ft 303 kts 270°
2026-04-30 08:34 -5.13722 119.27738 10244 ft 315 kts 270°
2026-04-30 08:34 -5.13720 119.25457 10382 ft 338 kts 270°